Vorticity
4 5 4 4 4 4 4 4 4 4 4 5 5 5 6 5 4 5 7 7 7 6 6 6 5 4 5 7 13 8 9 6 3 8 14 13 11 10 7 6 8 0 4 6 5 9 4
6 4 4 4 4 4 4 5 4 5 5 5 5 5 5 5 5 6 7 6 6 6 6 5 5 7 7 4 10 11 9 4 6 12 17 15 11 9 7 8 5 0 5 9 1 4 13
5 6 5 5 5 4 5 5 5 5 5 5 5 4 4 5 6 6 6 6 6 6 6 5 5 5 5 10 12 8 3 8 9 17 16 13 9 5 5 10 2 7 9 2 2 9 7
4 5 5 5 6 5 5 5 5 5 5 5 5 4 4 6 6 6 6 6 7 7 6 5 6 5 4 13 6 -1 6 8 16 17 11 8 6 5 5 6 4 1 4 10 -8 6 3
4 5 5 6 6 6 5 5 5 5 5 5 5 5 5 6 5 6 6 6 7 7 8 8 7 4 15 3 -3 11 9 13 17 14 8 5 5 4 8 7 11 9 0 3 13 4 6
5 3 5 5 6 6 7 6 6 5 5 5 5 6 5 5 5 5 5 6 6 7 7 7 17 20 -1 -3 7 5 12 14 14 8 3 3 2 5 9 6 3 -1 5 7 3 -8 8
6 6 5 6 5 6 5 6 6 5 5 6 5 6 6 6 6 6 6 7 8 6 10 4 -1 5 6 4 5 12 12 12 10 6 5 4 5 7 -1 3 4 3 6 8 13 -1 -2
6 6 5 4 6 5 6 6 5 6 6 5 5 6 6 6 6 6 6 7 7 4 13 -1 5 6 6 4 11 11 15 12 6 3 4 6 1 10 4 6 1 -1 8 13 6 -5 6
8 6 4 7 6 6 6 6 6 6 5 5 5 5 5 5 5 6 4 6 6 7 6 12 12 11 12 14 11 10 15 7 7 3 5 5 3 4 3 -0 1 10 9 6 3 4 12
3 6 7 4 4 5 7 6 6 6 6 5 5 5 5 5 5 7 6 5 5 7 30 22 27 37 26 15 13 13 11 7 4 9 5 11 12 8 -1 1 9 6 15 4 8 15 2
8 7 3 8 6 6 6 6 6 5 5 5 6 5 5 5 5 4 4 6 6 9 19 17 21 7 6 12 1 22 11 10 2 -1 5 -3 5 -1 -1 6 2 -8 18 1 13 12 16
6 7 6 5 5 3 5 6 5 6 6 4 4 7 7 6 6 7 5 5 8 33 10 7 7 3 15 11 8 -3 19 7 6 6 5 -3 0 2 4 -7 10 8 7 9 19 22 23
5 8 7 6 6 5 4 5 7 6 5 7 6 4 6 7 6 6 7 7 23 3 18 22 11 7 9 8 11 9 2 8 -3 13 25 23 13 7 3 15 13 10 6 13 13 7 2
15 15 13 10 6 7 6 6 5 6 7 7 6 7 6 5 7 7 6 14 0 17 15 -14 -11 -3 10 14 17 7 7 4 5 0 -11 5 17 17 16 17 -4 12 2 -14 11 7 6
34 18 16 12 14 6 11 9 10 8 7 8 7 7 7 7 7 6 8 14 -21 25 -3 5 6 11 4 5 -6 0 3 10 11 11 -5 1 8 0 5 14 -5 22 7 16 -17 18 17
25 16 20 25 21 15 14 10 9 7 8 9 8 8 8 9 7 7 9 5 -12 15 -24 20 11 -1 0 16 14 18 20 9 41 -0 22 14 15 32 18 20 13 -4 5 7 13 8 8
9 19 25 19 16 22 21 19 16 11 12 9 10 9 10 6 9 14 1 -8 21 8 -17 15 -12 -19 -13 -3 5 0 -10 3 2 -4 13 10 -4 -1 8 -2 1 -0 -11 -7 -1 -11 -1
4 10 17 29 15 21 20 17 17 26 26 22 13 15 11 14 15 5 6 -1 9 -3 2 8 22 16 6 5 -0 -22 6 -18 -22 -6 2 9 -7 10 -1 30 27 19 22 21 -41 23 12
3 6 4 6 14 16 13 14 17 14 17 19 22 26 16 7 17 21 9 6 5 7 -16 5 -6 1 10 -1 6 21 16 -11 8 -11 -8 1 7 17 52 53 28 4 10 9 26 -7 0
5 2 3 1 4 11 19 10 19 10 16 16 19 14 32 25 2 13 9 8 19 25 29 21 12 26 13 9 21 -8 -15 6 20 7 18 9 13 -41 -52 -64 -8 24 22 12 0 -3 13
8 7 4 5 3 -1 3 15 6 15 13 15 8 14 15 -10 56 13 9 9 31 33 18 11 15 9 9 29 26 14 19 12 9 8 26 22 -2 23 16 2 3 5 8 21 28 17 -19
8 7 10 2 4 4 2 -4 9 1 13 -2 4 12 12 14 11 -7 34 40 18 -1 -29 10 19 9 32 26 22 24 52 40 9 28 22 12 3 34 32 19 15 1 -10 17 -3 21 19
11 8 9 10 6 5 4 8 -0 -1 -4 6 13 13 12 7 7 12 11 2 -1 -3 16 29 25 20 12 0 -8 -4 -7 11 12 28 31 35 25 15 22 27 34 51 32 20 10 22 1
13 17 7 8 11 4 6 5 8 9 10 8 3 10 6 6 14 11 11 16 16 7 10 -0 4 -3 6 15 27 25 14 -3 -11 -9 0 -6 24 16 16 -4 9 10 1 14 17 27 32
3 2 24 19 8 11 4 4 5 7 5 6 9 15 15 5 7 7 19 17 13 10 12 12 20 17 16 10 0 28 25 41 43 35 -6 -18 -8 -17 -8 9 -13 -20 -2 3 -4 7 7
5 4 5 10 20 13 9 7 5 3 5 8 5 1 4 6 12 9 4 -3 1 7 10 1 17 20 30 19 18 20 -0 -1 20 25 42 38 31 -3 -5 2 -0 35 61 23 38 25 8
5 7 6 3 11 19 9 11 5 8 7 11 10 4 4 8 7 6 1 1 3 10 16 13 17 20 20 4 18 13 16 -13 -1 -9 4 12 28 6 8 -5 28 14 5 -7 27 -33 20
12 9 11 9 8 13 19 9 10 6 10 8 9 8 6 13 7 6 8 15 25 21 13 5 2 30 34 22 -14 -27 6 26 27 10 14 18 4 20 39 16 30 41 41 10 20 23 15
28 10 14 12 12 12 20 12 19 15 14 9 12 10 -6 35 3 11 17 6 4 6 1 4 -0 -14 -31 -13 -10 4 -17 13 9 4 23 26 -2 -11 4 33 -13 -2 20 12 8 11 11
Height
3156 3156 3157 3158 3161 3161 3162 3164 3166 3167 3168 3168 3168 3168 3167 3167 3167 3166 3165 3164 3163 3162 3161 3160 3159 3158 3157 3156 3156 3154 3153 3152 3152 3151 3150 3149 3149 3149 3151 3153 3154 3154 3154 3154 3153 3151 3150
3153 3154 3155 3155 3156 3158 3159 3161 3162 3164 3165 3165 3165 3166 3165 3165 3164 3163 3162 3162 3161 3160 3159 3158 3157 3156 3155 3154 3153 3152 3152 3152 3150 3149 3148 3148 3148 3149 3150 3152 3153 3153 3152 3151 3151 3149 3148
3150 3151 3152 3153 3154 3154 3155 3157 3158 3160 3161 3162 3162 3162 3162 3162 3161 3161 3160 3159 3158 3158 3157 3155 3154 3153 3152 3153 3151 3150 3150 3150 3148 3147 3147 3148 3148 3149 3149 3151 3152 3152 3151 3150 3149 3147 3145
3144 3147 3149 3150 3151 3152 3151 3152 3154 3156 3157 3158 3158 3158 3159 3158 3158 3158 3158 3157 3156 3156 3155 3153 3152 3150 3149 3149 3149 3148 3148 3147 3147 3146 3147 3147 3148 3149 3149 3150 3150 3150 3150 3148 3147 3145 3143
3139 3140 3144 3145 3147 3147 3148 3148 3150 3151 3153 3154 3154 3155 3155 3155 3155 3154 3154 3154 3153 3153 3152 3151 3151 3148 3148 3147 3147 3146 3144 3144 3145 3146 3146 3147 3148 3148 3148 3148 3148 3148 3148 3147 3145 3143 3142
3132 3135 3136 3140 3141 3143 3144 3145 3146 3146 3148 3149 3150 3151 3150 3151 3151 3151 3150 3150 3149 3149 3149 3148 3148 3149 3147 3146 3144 3143 3142 3141 3142 3144 3145 3146 3146 3145 3145 3145 3147 3146 3145 3145 3143 3140 3139
3125 3128 3130 3132 3135 3137 3139 3140 3142 3142 3143 3144 3145 3146 3146 3147 3147 3147 3147 3147 3149 3147 3146 3145 3145 3143 3142 3142 3141 3141 3140 3138 3140 3142 3142 3142 3143 3141 3142 3143 3143 3143 3142 3141 3139 3136 3135
3118 3120 3122 3125 3128 3131 3133 3135 3136 3138 3139 3140 3140 3141 3142 3143 3143 3143 3142 3142 3143 3142 3138 3140 3139 3138 3137 3137 3137 3138 3139 3138 3137 3138 3139 3140 3138 3139 3139 3139 3139 3139 3137 3136 3135 3133 3131
3110 3113 3115 3117 3120 3122 3126 3129 3132 3133 3134 3134 3135 3136 3138 3138 3139 3140 3140 3140 3139 3136 3134 3131 3133 3131 3132 3133 3131 3132 3135 3135 3135 3136 3136 3137 3137 3136 3136 3136 3136 3135 3134 3133 3132 3128 3126
3103 3105 3108 3110 3112 3115 3117 3120 3124 3126 3128 3129 3130 3131 3133 3134 3138 3136 3138 3137 3136 3134 3129 3127 3124 3123 3125 3126 3127 3127 3129 3134 3133 3133 3133 3134 3133 3133 3133 3132 3132 3130 3130 3130 3128 3126 3123
3094 3097 3099 3102 3106 3107 3110 3111 3113 3118 3120 3122 3125 3127 3129 3130 3132 3134 3135 3135 3135 3135 3130 3123 3119 3119 3120 3123 3123 3123 3125 3127 3129 3128 3132 3130 3129 3130 3130 3129 3129 3128 3126 3126 3124 3122 3119
3085 3086 3090 3093 3096 3099 3101 3103 3106 3107 3111 3115 3118 3121 3123 3126 3127 3130 3131 3131 3133 3135 3125 3119 3117 3116 3117 3118 3118 3121 3123 3124 3126 3127 3127 3126 3126 3126 3125 3125 3124 3124 3123 3121 3119 3118 3118
3075 3077 3080 3081 3085 3090 3093 3096 3098 3100 3104 3107 3111 3113 3115 3119 3123 3125 3127 3129 3132 3124 3120 3117 3115 3115 3114 3114 3116 3116 3118 3120 3122 3124 3123 3122 3121 3121 3121 3120 3120 3120 3121 3120 3120 3117 3113
3063 3066 3068 3071 3074 3077 3081 3085 3089 3092 3096 3099 3103 3105 3107 3113 3116 3119 3120 3125 3120 3114 3115 3114 3114 3112 3112 3112 3112 3112 3113 3113 3115 3118 3119 3118 3116 3116 3116 3115 3115 3115 3116 3117 3120 3115 3108
3054 3057 3058 3058 3061 3065 3068 3073 3077 3082 3086 3091 3095 3096 3097 3107 3110 3112 3113 3107 3104 3109 3112 3112 3112 3109 3108 3108 3109 3108 3107 3106 3107 3109 3111 3110 3108 3109 3110 3112 3112 3112 3112 3114 3111 3109 3106
3047 3050 3049 3050 3051 3053 3057 3061 3064 3069 3074 3080 3085 3087 3088 3100 3101 3103 3100 3088 3091 3100 3106 3107 3105 3105 3103 3104 3105 3102 3101 3100 3102 3102 3106 3103 3103 3099 3101 3104 3106 3105 3107 3108 3110 3110 3104
3041 3043 3043 3042 3043 3045 3048 3051 3055 3059 3063 3067 3073 3075 3076 3090 3091 3088 3076 3078 3084 3088 3096 3099 3097 3096 3097 3100 3099 3097 3094 3095 3096 3098 3099 3098 3100 3094 3093 3091 3094 3098 3097 3098 3099 3098 3095
3035 3038 3038 3037 3037 3039 3041 3043 3046 3049 3053 3057 3061 3064 3064 3073 3080 3071 3063 3069 3079 3081 3084 3083 3087 3088 3088 3092 3092 3090 3087 3090 3091 3092 3092 3093 3090 3084 3081 3082 3084 3085 3086 3088 3089 3085 3081
3029 3032 3034 3034 3034 3035 3036 3037 3039 3041 3044 3047 3049 3052 3055 3061 3059 3058 3060 3061 3067 3070 3072 3072 3071 3074 3081 3078 3082 3076 3076 3083 3084 3080 3081 3085 3082 3080 3076 3075 3072 3070 3072 3074 3077 3079 3072
3022 3025 3028 3030 3031 3032 3032 3032 3033 3036 3038 3041 3043 3043 3045 3048 3048 3051 3052 3052 3055 3054 3058 3060 3057 3060 3064 3061 3065 3060 3062 3071 3072 3070 3072 3072 3069 3064 3062 3065 3060 3059 3060 3063 3067 3063 3062
3014 3018 3021 3024 3028 3028 3029 3029 3030 3031 3032 3037 3036 3036 3038 3039 3039 3042 3044 3044 3045 3045 3046 3047 3046 3047 3047 3047 3050 3049 3052 3057 3055 3057 3055 3057 3047 3051 3045 3055 3052 3050 3050 3051 3051 3051 3055
3007 3011 3014 3017 3021 3022 3024 3024 3026 3028 3029 3031 3033 3034 3034 3035 3036 3035 3033 3036 3037 3037 3040 3039 3038 3038 3038 3038 3037 3038 3037 3037 3040 3040 3041 3038 3035 3037 3034 3037 3040 3037 3037 3041 3041 3042 3042
2999 3003 3007 3011 3014 3016 3018 3019 3021 3023 3023 3024 3026 3028 3030 3028 3030 3031 3029 3029 3031 3032 3032 3033 3032 3031 3031 3032 3031 3032 3032 3032 3032 3032 3032 3033 3031 3031 3027 3030 3032 3029 3023 3030 3028 3032 3035
2991 2994 2998 3002 3006 3010 3012 3014 3015 3017 3018 3020 3020 3023 3024 3020 3024 3026 3026 3025 3025 3027 3026 3028 3027 3026 3027 3026 3023 3023 3024 3024 3026 3027 3028 3027 3026 3025 3023 3024 3021 3013 3014 3019 3021 3020 3024
2984 2987 2989 2993 2996 3000 3005 3007 3009 3011 3012 3013 3014 3016 3017 3015 3018 3020 3021 3021 3021 3021 3022 3020 3022 3022 3022 3021 3022 3019 3016 3013 3012 3017 3020 3022 3022 3019 3016 3012 3008 3008 3010 3013 3014 3016 3019
2975 2979 2982 2985 2988 2992 2996 3000 3002 3004 3006 3007 3008 3010 3011 3011 3010 3014 3015 3017 3017 3017 3018 3017 3017 3017 3018 3016 3016 3014 3012 3010 3007 3006 3007 3010 3013 3014 3011 3004 3000 2999 3005 3008 3008 3003 3008
2966 2970 2974 2978 2980 2984 2987 2991 2994 2997 2999 3000 3000 3002 3004 3004 3005 3006 3008 3011 3012 3012 3012 3014 3012 3013 3013 3011 3009 3009 3007 3007 3004 3003 3004 3002 3005 3003 3003 2998 2993 2994 3000 3002 3005 3003 3002
2958 2963 2967 2970 2974 2976 2980 2982 2985 2988 2992 2993 2993 2994 2996 2996 2998 3000 3001 3003 3004 3005 3007 3008 3009 3007 3007 3006 3004 3002 3002 3000 2997 2995 2996 2996 2997 2996 2997 2995 2988 2990 2993 2994 2992 2994 2996
2950 2955 2960 2964 2967 2969 2972 2975 2977 2981 2983 2986 2988 2989 2988 2988 2991 2993 2995 2996 2998 3000 3002 3001 3003 3004 3004 3003 3000 2996 2994 2994 2992 2989 2990 2991 2990 2990 2991 2985 2985 2987 2986 2987 2987 2987 2990